Home   Weather   Andernach   Past weeks

Flag for Germany Past Weather in Andernach, Rhineland-Palatinate, Germany — Yesterday and Last 2 Weeks

Now
55 °F

Cool.


Feels Like: 53 °F
Forecast: 50 / 58 °F
Wind: 8 mph from West

Location: Buechel

Current Time: Oct 1, 2016 at 3:57:08 PM

Latest Report: Oct 1, 2016 at 3:20 PM


Visibility: N/A

Pressure: 29.80 "Hg

Humidity: 100%

Dew Point: 55 °F

Location of AndernachLocation

Past Weather in Andernach — Graph

°F

Andernach Temperature Yesterday

Maximum temperature yesterday: 57 °F (at 12:20 AM)
Minimum temperature yesterday: 52 °F (at 9:20 PM)
Average temperature yesterday: 54 °F

High & Low Weather Summary for the Past Weeks

 TemperatureHumidityPressure
High72 °F (Sep 25, 3:20 PM)100% (Sep 17, 4:20 AM)30.36 "Hg (Sep 17, 4:20 AM)
Low48 °F (Sep 22, 5:20 AM)43% (Sep 22, 2:20 PM)29.80 "Hg (Oct 1, 6:20 AM)
Average57 °F77%30.13 "Hg
* Reported Sep 16 2:20 PM — Oct 1 2:20 PM, Andernach, Weather by CustomWeather, © 2016

Note: Actual official high and low records may vary slightly from our data, if they occured in-between our weather recording intervals... More about our weather records

Advertising

Andernach Weather History for the Previous 24 Hours

Scroll right to see more
 ConditionsComfort  
Time TempWeatherWind HumidityBarometerVisibility
2:20 PM
Sat, Oct 1
55 °FCool.7 mph100%29.80 "HgN/A
1:20 PM54 °FCool.6 mph100%29.80 "Hg3 mi
12:20 PM52 °FCool.3 mph100%29.80 "Hg5 mi
11:20 AM52 °FCool.2 mph94%29.80 "Hg2 mi
10:20 AM50 °FCool.3 mph100%29.80 "Hg3 mi
9:20 AM50 °FCool.5 mph100%29.80 "Hg3 mi
8:20 AM50 °FCool.5 mph94%29.80 "Hg1 mi
7:20 AM48 °FCool.6 mph100%29.80 "Hg1 mi
6:20 AM48 °FCool.8 mph100%29.80 "Hg1 mi
5:20 AM50 °FCool.6 mph94%29.83 "Hg1 mi
4:20 AM52 °FCool.5 mph94%29.86 "Hg2 mi
3:20 AM52 °FCool.2 mph100%29.89 "Hg2 mi
2:20 AM52 °FCool.5 mph100%29.92 "Hg1 mi
1:20 AM52 °FCool.2 mph100%29.92 "Hg1 mi
12:20 AM52 °FCool.2 mph100%29.95 "Hg2 mi
11:20 PM
Fri, Sep 30
52 °FCool.2 mph100%29.95 "Hg1 mi
10:20 PM52 °FCool.3 mph100%29.98 "Hg4 mi
9:20 PM52 °FCool.5 mph100%29.98 "Hg4 mi
8:20 PM54 °FCool.3 mph94%29.98 "Hg5 mi
7:20 PM54 °FCool.6 mph94%29.98 "Hg6 mi
6:20 PM55 °FCool.9 mph88%29.98 "HgN/A
5:20 PM55 °FCool.9 mph88%29.98 "HgN/A
4:20 PM55 °FCool.9 mph88%30.01 "HgN/A
3:20 PM54 °FCool.8 mph94%30.01 "HgN/A
Weather by CustomWeather, © 2016

See weather overviewHow to use our weather pages